[Date Prev][Date Next][Thread Prev][Thread Next] - [Date Index][Thread Index][Author Index]
2 Line ISS Keps 11-25
- Subject: [sarex] 2 Line ISS Keps 11-25
- From: "Scott Avery WA6LIE" <wa6lie@xxxxxxx>
- Date: Thu, 24 Nov 2005 17:08:15 -0800
- Seal-Send-Time: Thu, 24 Nov 2005 17:08:16 -0800
ISS
1 25544U 98067A 05328.82952546 .00010996 00000-0 85085-4 0 8173
2 25544 051.6426 157.5779 0008492 324.0660 248.3287 15.72448542400966
----
Via the sarex mailing list at AMSAT.ORG courtesy of AMSAT-NA.
To unsubscribe, send "unsubscribe sarex" to Majordomo@amsat.org
AMSAT Home